Simultaneous Nadir Overpasses (SNOs) Predictions

Prediction of SNOs between GOES-16 and METOP-C Satellite Orbit:

Table of predicted SNOs for the next 14.0 days since TLE Epoch: 12/23/2023
Index Date Time (GOES-16) GOES-16 Lat,Lon METOP-C Lat,Lon Distance(km) Time Diff (sec)
1 12/23/2023 02:45:53 0.04, -75.20 0.00, -78.75 395.05 80
2 12/24/2023 02:22:23 0.04, -75.20 0.42, -73.60 182.45 80
3 12/25/2023 14:43:56 -0.04, -75.23 0.59, -78.17 334.61 80
4 12/26/2023 14:20:36 -0.04, -75.23 -0.48, -73.17 234.69 80
5 12/28/2023 02:42:17 0.03, -75.21 -0.57, -77.76 290.92 80
6 12/29/2023 02:18:58 0.03, -75.22 0.56, -72.77 278.72 80
7 12/30/2023 14:37:51 -0.03, -75.26 0.44, -77.34 237.02 80
8 12/31/2023 14:19:53 -0.03, -75.27 -0.69, -72.35 333.29 80
9 01/02/2024 02:38:53 0.02, -75.27 -0.37, -76.94 190.77 80
10 01/03/2024 02:15:35 0.02, -75.29 0.76, -71.95 379.80 80
11 01/04/2024 14:34:28 -0.02, -75.34 0.23, -76.52 134.71 80
12 01/05/2024 14:16:30 -0.02, -75.36 -0.90, -71.53 436.24 80
